ACA771 KFLL-CYUL

Flight info

Callsign ACA771
Flight time 3h 2m
Altitude 37000
Route FEALX2 ETECK DCT GRUBR Y299 SEELO DCT WAALT Q131 EARZZ DCT JAMIE Q133 PBERG CARTR5
Aircraft B38M/M-SDE1FGHILORVWXY/HB1

Departure

Time 2026-05-06 20:44
Airport Fort Lauderdale Hollywood International Airport (KFLL)

Arrival

Time 2026-05-06 23:46
Airport Montreal / Pierre Elliott Trudeau International Airport (CYUL)
Time Latitude Longitude Altitude Speed Heading
2026-05-06 20:26 26.07384 -80.14261 18 ft 0 kts 245°
2026-05-06 20:32 26.07384 -80.14260 18 ft 0 kts 245°
2026-05-06 20:37 26.07393 -80.14235 18 ft 4 kts 260°
2026-05-06 20:37 26.07392 -80.14207 18 ft 4 kts 295°
2026-05-06 20:37 26.07376 -80.14191 19 ft 3 kts 355°
2026-05-06 20:37 26.07372 -80.14190 18 ft 2 kts
2026-05-06 20:39 26.07374 -80.14190 18 ft 1 kts
2026-05-06 20:39 26.07386 -80.14190 19 ft 3 kts 358°
2026-05-06 20:39 26.07441 -80.14198 18 ft 14 kts 337°
2026-05-06 20:40 26.07486 -80.14331 18 ft 24 kts 271°
2026-05-06 20:40 26.07488 -80.14529 19 ft 26 kts 270°
2026-05-06 20:40 26.07488 -80.14706 18 ft 20 kts 270°
2026-05-06 20:40 26.07488 -80.14855 18 ft 19 kts 270°
2026-05-06 20:41 26.07489 -80.15007 18 ft 22 kts 271°
2026-05-06 20:41 26.07490 -80.15211 18 ft 30 kts 271°
2026-05-06 20:41 26.07491 -80.15464 18 ft 35 kts 270°
2026-05-06 20:41 26.07493 -80.15722 18 ft 32 kts 270°
2026-05-06 20:42 26.07495 -80.15956 18 ft 29 kts 270°
2026-05-06 20:42 26.07497 -80.16168 18 ft 26 kts 269°
2026-05-06 20:42 26.07497 -80.16362 18 ft 24 kts 271°
2026-05-06 20:42 26.07515 -80.16535 19 ft 21 kts 309°
2026-05-06 20:43 26.07646 -80.16558 20 ft 18 kts 12°
2026-05-06 20:43 26.07694 -80.16463 26 ft 14 kts 89°
2026-05-06 20:43 26.07694 -80.16268 24 ft 57 kts 90°
2026-05-06 20:43 26.07691 -80.15521 18 ft 134 kts 90°
2026-05-06 20:44 26.07680 -80.14274 288 ft 177 kts 92°
2026-05-06 20:44 26.07695 -80.12860 1237 ft 183 kts 88°
2026-05-06 20:44 26.07713 -80.11417 2192 ft 195 kts 89°
2026-05-06 20:44 26.07745 -80.09807 2790 ft 219 kts 89°
2026-05-06 20:45 26.07774 -80.08013 3344 ft 245 kts 89°
2026-05-06 20:45 26.07797 -80.06052 4074 ft 261 kts 89°
2026-05-06 20:45 26.07815 -80.03971 4844 ft 276 kts 89°
2026-05-06 20:45 26.07865 -80.01839 5890 ft 277 kts 81°
2026-05-06 20:46 26.08527 -79.99844 6888 ft 277 kts 56°
2026-05-06 20:46 26.09640 -79.98078 7808 ft 281 kts 53°
2026-05-06 20:46 26.10770 -79.96299 8772 ft 283 kts 53°
2026-05-06 20:46 26.11920 -79.94509 9688 ft 286 kts 52°
2026-05-06 20:47 26.13098 -79.92690 10446 ft 295 kts 52°
2026-05-06 20:47 26.14337 -79.90786 10850 ft 314 kts 52°
2026-05-06 20:47 26.15661 -79.88755 11219 ft 333 kts 52°
2026-05-06 20:47 26.17048 -79.86630 11722 ft 344 kts 52°
2026-05-06 20:48 26.18455 -79.84474 12519 ft 344 kts 52°
2026-05-06 20:48 26.19871 -79.82305 13262 ft 348 kts 52°
2026-05-06 20:48 26.21296 -79.80119 13990 ft 350 kts 51°
2026-05-06 20:48 26.22732 -79.77918 14593 ft 353 kts 51°
2026-05-06 20:49 26.24185 -79.75688 15147 ft 358 kts 51°
2026-05-06 20:49 26.25657 -79.73429 15702 ft 362 kts 51°
2026-05-06 20:49 26.27144 -79.71144 16244 ft 366 kts 51°
2026-05-06 20:49 26.28649 -79.68832 16777 ft 371 kts 51°
2026-05-06 20:50 26.30337 -79.66727 17280 ft 371 kts 40°
2026-05-06 20:50 26.32204 -79.64659 17777 ft 376 kts 42°
2026-05-06 20:50 26.34017 -79.62597 18277 ft 380 kts 42°
2026-05-06 20:50 26.35868 -79.60469 18715 ft 383 kts 42°
2026-05-06 20:51 26.37722 -79.58324 19155 ft 386 kts 42°
2026-05-06 20:51 26.39591 -79.56156 19600 ft 389 kts 42°
2026-05-06 20:51 26.41472 -79.53971 20033 ft 392 kts 42°
2026-05-06 20:51 26.43371 -79.51764 20460 ft 395 kts 42°
2026-05-06 20:52 26.45281 -79.49543 20888 ft 398 kts 41°
2026-05-06 20:52 26.47203 -79.47307 21305 ft 401 kts 41°
2026-05-06 20:52 26.49138 -79.45054 21721 ft 403 kts 41°
2026-05-06 20:52 26.51086 -79.42786 22131 ft 406 kts 41°
2026-05-06 20:53 26.53050 -79.40497 22535 ft 409 kts 41°
2026-05-06 20:53 26.55070 -79.38259 22922 ft 408 kts 33°
2026-05-06 20:53 26.57438 -79.36545 23289 ft 407 kts 27°
2026-05-06 20:53 26.59853 -79.34861 23640 ft 410 kts 27°
2026-05-06 20:54 26.62286 -79.33180 23987 ft 412 kts 27°
2026-05-06 20:54 26.64741 -79.31498 24298 ft 415 kts 26°
2026-05-06 20:54 26.67211 -79.29814 24629 ft 417 kts 26°
2026-05-06 20:54 26.69699 -79.28118 24952 ft 420 kts 26°
2026-05-06 20:55 26.72201 -79.26413 25272 ft 422 kts 26°
2026-05-06 20:55 26.74718 -79.24698 25593 ft 425 kts 26°
2026-05-06 20:55 26.77249 -79.22972 25913 ft 427 kts 26°
2026-05-06 20:55 26.79793 -79.21237 26225 ft 430 kts 26°
2026-05-06 20:56 26.82356 -79.19487 26551 ft 432 kts 26°
2026-05-06 20:56 26.84930 -79.17729 26873 ft 435 kts 26°
2026-05-06 20:56 26.87518 -79.15960 27185 ft 437 kts 26°
2026-05-06 20:56 26.90123 -79.14180 27488 ft 440 kts 26°
2026-05-06 20:57 26.92740 -79.12390 27805 ft 442 kts 26°
2026-05-06 20:57 26.95370 -79.10590 28099 ft 444 kts 26°
2026-05-06 20:57 26.98014 -79.08778 28401 ft 447 kts 26°
2026-05-06 20:57 27.00673 -79.06956 28699 ft 449 kts 26°
2026-05-06 20:58 27.03347 -79.05123 28989 ft 451 kts 26°
2026-05-06 20:58 27.06030 -79.03283 29275 ft 454 kts 26°
2026-05-06 20:58 27.08725 -79.01433 29555 ft 456 kts 26°
2026-05-06 20:58 27.11439 -78.99569 29831 ft 458 kts 26°
2026-05-06 20:59 27.14172 -78.97691 30108 ft 461 kts 26°
2026-05-06 20:59 27.16913 -78.95806 30334 ft 463 kts 25°
2026-05-06 20:59 27.19663 -78.93915 30581 ft 465 kts 25°
2026-05-06 20:59 27.22387 -78.92039 30820 ft 466 kts 25°
2026-05-06 21:00 27.25192 -78.90107 31055 ft 468 kts 25°
2026-05-06 21:00 27.27939 -78.88214 31299 ft 470 kts 25°
2026-05-06 21:00 27.30758 -78.86270 31600 ft 470 kts 25°
2026-05-06 21:00 27.33505 -78.84375 31909 ft 469 kts 25°
2026-05-06 21:01 27.36286 -78.82455 32256 ft 468 kts 25°
2026-05-06 21:01 27.39102 -78.80663 32609 ft 460 kts 16°
2026-05-06 21:01 27.42118 -78.79692 33000 ft 446 kts
2026-05-06 21:01 27.45176 -78.79139 33272 ft 446 kts
2026-05-06 21:02 27.48244 -78.78620 33599 ft 445 kts
2026-05-06 21:02 27.51305 -78.78135 33949 ft 444 kts
2026-05-06 21:02 27.54403 -78.77665 34261 ft 443 kts
2026-05-06 21:02 27.57455 -78.77212 34559 ft 442 kts
2026-05-06 21:03 27.60460 -78.76771 34846 ft 441 kts
2026-05-06 21:03 27.63540 -78.76319 35140 ft 440 kts
2026-05-06 21:03 27.66532 -78.75880 35407 ft 439 kts
2026-05-06 21:03 27.69561 -78.75436 35671 ft 439 kts
2026-05-06 21:04 27.72588 -78.74992 35930 ft 438 kts
2026-05-06 21:04 27.75608 -78.74549 36186 ft 438 kts
2026-05-06 21:04 27.78627 -78.74105 36433 ft 437 kts
2026-05-06 21:04 27.81639 -78.73662 36671 ft 436 kts
2026-05-06 21:05 27.84648 -78.73220 36905 ft 436 kts
2026-05-06 21:05 27.87653 -78.72778 37073 ft 436 kts
2026-05-06 21:05 27.90664 -78.72334 37083 ft 435 kts
2026-05-06 21:06 27.96647 -78.71453 37080 ft 433 kts
2026-05-06 21:06 28.02625 -78.70571 37077 ft 433 kts
2026-05-06 21:07 28.08606 -78.69688 37078 ft 433 kts
2026-05-06 21:07 28.14582 -78.68805 37078 ft 433 kts
2026-05-06 21:08 28.20561 -78.67920 37078 ft 433 kts
2026-05-06 21:08 28.26540 -78.67034 37078 ft 433 kts
2026-05-06 21:09 28.32514 -78.66148 37077 ft 433 kts 360°
2026-05-06 21:09 28.38488 -78.65260 37077 ft 433 kts 360°
2026-05-06 21:10 28.44460 -78.64373 37079 ft 433 kts 360°
2026-05-06 21:10 28.50432 -78.63484 37080 ft 433 kts 360°
2026-05-06 21:11 28.56400 -78.62594 37081 ft 433 kts 360°
2026-05-06 21:11 28.62367 -78.61704 37081 ft 432 kts 360°
2026-05-06 21:12 28.68333 -78.60813 37082 ft 432 kts 359°
2026-05-06 21:12 28.74252 -78.59928 37086 ft 432 kts 359°
2026-05-06 21:13 28.80213 -78.59036 37082 ft 432 kts 359°
2026-05-06 21:13 28.86172 -78.58143 37085 ft 432 kts 359°
2026-05-06 21:14 28.92127 -78.57249 37085 ft 431 kts 359°
2026-05-06 21:14 28.98077 -78.56356 37080 ft 431 kts 359°
2026-05-06 21:15 29.04031 -78.55460 37090 ft 431 kts 359°
2026-05-06 21:15 29.09978 -78.54565 37084 ft 431 kts 359°
2026-05-06 21:16 29.14918 -78.53820 37085 ft 431 kts 359°
2026-05-06 21:16 29.20861 -78.52924 37085 ft 431 kts 359°
2026-05-06 21:17 29.26804 -78.52026 37085 ft 431 kts 359°
2026-05-06 21:17 29.32745 -78.51127 37085 ft 430 kts 359°
2026-05-06 21:18 29.38679 -78.50229 37087 ft 430 kts 359°
2026-05-06 21:18 29.44616 -78.49329 37086 ft 430 kts 359°
2026-05-06 21:19 29.50487 -78.49023 37099 ft 413 kts 346°
2026-05-06 21:19 29.56256 -78.49589 37096 ft 417 kts 347°
2026-05-06 21:20 29.62029 -78.50188 37090 ft 416 kts 347°
2026-05-06 21:20 29.67791 -78.50803 37092 ft 416 kts 346°
2026-05-06 21:21 29.73550 -78.51424 37082 ft 416 kts 346°
2026-05-06 21:21 29.79308 -78.52046 37081 ft 415 kts 346°
2026-05-06 21:22 29.85058 -78.52669 37084 ft 415 kts 346°
2026-05-06 21:22 29.90810 -78.53293 37087 ft 415 kts 346°
2026-05-06 21:23 29.96556 -78.53916 37088 ft 415 kts 346°
2026-05-06 21:23 30.02298 -78.54540 37088 ft 415 kts 346°
2026-05-06 21:24 30.08042 -78.55165 37087 ft 414 kts 346°
2026-05-06 21:24 30.13782 -78.55784 37087 ft 415 kts 347°
2026-05-06 21:24 30.16668 -78.55647 37088 ft 427 kts 358°
2026-05-06 21:25 30.19621 -78.55227 37084 ft 428 kts 357°
2026-05-06 21:25 30.25532 -78.54401 37081 ft 428 kts 357°
2026-05-06 21:26 30.31440 -78.53556 37090 ft 428 kts 357°
2026-05-06 21:26 30.37353 -78.52709 37087 ft 428 kts 357°
2026-05-06 21:27 30.43257 -78.51822 37089 ft 429 kts 358°
2026-05-06 21:27 30.49166 -78.50859 37086 ft 428 kts 358°
2026-05-06 21:28 30.55065 -78.49904 37091 ft 428 kts 358°
2026-05-06 21:28 30.60965 -78.48949 37083 ft 428 kts 358°
2026-05-06 21:29 30.66863 -78.47993 37084 ft 428 kts 358°
2026-05-06 21:29 30.72754 -78.47037 37081 ft 427 kts 358°
2026-05-06 21:30 30.78645 -78.46079 37084 ft 427 kts 358°
2026-05-06 21:30 30.84532 -78.45121 37085 ft 427 kts 358°
2026-05-06 21:31 30.90411 -78.44163 37084 ft 427 kts 358°
2026-05-06 21:31 30.96286 -78.43205 37082 ft 426 kts 357°
2026-05-06 21:32 31.02158 -78.42246 37083 ft 426 kts 357°
2026-05-06 21:32 31.10917 -78.40814 37082 ft 425 kts 357°
2026-05-06 21:33 31.16782 -78.39853 37082 ft 425 kts 357°
2026-05-06 21:33 31.22641 -78.38892 37076 ft 425 kts 357°
2026-05-06 21:34 31.28493 -78.37931 37080 ft 425 kts 357°
2026-05-06 21:34 31.34347 -78.36968 37080 ft 425 kts 357°
2026-05-06 21:35 31.40194 -78.36005 37076 ft 424 kts 357°
2026-05-06 21:35 31.46041 -78.35042 37075 ft 424 kts 357°
2026-05-06 21:36 31.51887 -78.34077 37079 ft 424 kts 357°
2026-05-06 21:36 31.57728 -78.33111 37079 ft 424 kts 357°
2026-05-06 21:37 31.63575 -78.32143 37076 ft 424 kts 356°
2026-05-06 21:37 31.69418 -78.31175 37075 ft 424 kts 356°
2026-05-06 21:38 31.75224 -78.30212 37074 ft 424 kts 356°
2026-05-06 21:38 31.81066 -78.29242 37071 ft 424 kts 356°
2026-05-06 21:39 31.86901 -78.28271 37072 ft 424 kts 356°
2026-05-06 21:39 31.92743 -78.27299 37068 ft 424 kts 356°
2026-05-06 21:40 31.98580 -78.26326 37067 ft 424 kts 356°
2026-05-06 21:40 32.04424 -78.25195 37073 ft 428 kts 359°
2026-05-06 21:41 32.10273 -78.23922 37066 ft 427 kts 359°
2026-05-06 21:41 32.16120 -78.22663 37068 ft 427 kts 359°
2026-05-06 21:42 32.21967 -78.21404 37066 ft 427 kts 359°
2026-05-06 21:42 32.27815 -78.20143 37060 ft 427 kts 358°
2026-05-06 21:43 32.33662 -78.18881 37063 ft 427 kts 359°
2026-05-06 21:43 32.39512 -78.17617 37061 ft 427 kts 359°
2026-05-06 21:44 32.45367 -78.16350 37060 ft 427 kts 359°
2026-05-06 21:44 32.51222 -78.15081 37057 ft 428 kts 359°
2026-05-06 21:45 32.57071 -78.13812 37052 ft 428 kts 359°
2026-05-06 21:45 32.62927 -78.12539 37058 ft 428 kts 359°
2026-05-06 21:46 32.68744 -78.11274 37052 ft 428 kts 359°
2026-05-06 21:46 32.74608 -78.09996 37053 ft 428 kts 359°
2026-05-06 21:47 32.80470 -78.08718 37047 ft 429 kts 359°
2026-05-06 21:47 32.86335 -78.07436 37049 ft 429 kts 359°
2026-05-06 21:48 32.92212 -78.06151 37050 ft 429 kts 359°
2026-05-06 21:48 32.98088 -78.04864 37049 ft 430 kts 358°
2026-05-06 21:49 33.03974 -78.03573 37051 ft 430 kts 358°
2026-05-06 21:49 33.09869 -78.02278 37047 ft 431 kts 358°
2026-05-06 21:50 33.15764 -78.00982 37047 ft 431 kts 358°
2026-05-06 21:50 33.21668 -77.99682 37044 ft 431 kts 358°
2026-05-06 21:51 33.27575 -77.98379 37041 ft 432 kts 358°
2026-05-06 21:51 33.33482 -77.97074 37041 ft 432 kts 358°
2026-05-06 21:52 33.39396 -77.95767 37041 ft 432 kts 358°
2026-05-06 21:52 33.45312 -77.94457 37038 ft 432 kts 358°
2026-05-06 21:53 33.51228 -77.93145 37038 ft 432 kts 358°
2026-05-06 21:53 33.57147 -77.91830 37037 ft 433 kts 358°
2026-05-06 21:54 33.63062 -77.90515 37032 ft 433 kts 358°
2026-05-06 21:54 33.68983 -77.89197 37027 ft 432 kts 358°
2026-05-06 21:55 33.74894 -77.87879 37029 ft 432 kts 358°
2026-05-06 21:55 33.80811 -77.86485 37029 ft 435 kts 360°
2026-05-06 21:56 33.86731 -77.84990 37024 ft 435 kts 359°
2026-05-06 21:56 33.92649 -77.83504 37021 ft 434 kts 359°
2026-05-06 21:57 33.98565 -77.82018 37022 ft 434 kts 359°
2026-05-06 21:57 34.04444 -77.80538 37018 ft 434 kts 359°
2026-05-06 21:58 34.10364 -77.79047 37015 ft 435 kts 360°
2026-05-06 21:58 34.16282 -77.77554 37007 ft 435 kts 359°
2026-05-06 21:59 34.22209 -77.76057 37004 ft 435 kts 360°
2026-05-06 21:59 34.28128 -77.74559 37005 ft 435 kts 359°
2026-05-06 22:00 34.34051 -77.73058 37007 ft 435 kts 359°
2026-05-06 22:00 34.37010 -77.72241 36942 ft 446 kts
2026-05-06 22:00 34.39894 -77.70790 37078 ft 440 kts
2026-05-06 22:01 34.42816 -77.70151 36987 ft 417 kts 350°
2026-05-06 22:01 34.45725 -77.69900 36996 ft 428 kts 357°
2026-05-06 22:01 34.51642 -77.68550 36992 ft 434 kts 359°
2026-05-06 22:02 34.57525 -77.66567 36982 ft 457 kts 14°
2026-05-06 22:02 34.63253 -77.63187 36975 ft 458 kts 13°
2026-05-06 22:03 34.68983 -77.59780 36973 ft 458 kts 13°
2026-05-06 22:03 34.74699 -77.56363 36993 ft 458 kts 13°
2026-05-06 22:04 34.80407 -77.52946 36999 ft 457 kts 13°
2026-05-06 22:04 34.85152 -77.50101 36994 ft 457 kts 14°
2026-05-06 22:05 34.90853 -77.46679 36996 ft 457 kts 14°
2026-05-06 22:05 34.96546 -77.43256 36995 ft 456 kts 14°
2026-05-06 22:06 35.02242 -77.39826 36997 ft 456 kts 14°
2026-05-06 22:06 35.07937 -77.36391 36992 ft 456 kts 14°
2026-05-06 22:07 35.13622 -77.32957 36999 ft 456 kts 14°
2026-05-06 22:07 35.19300 -77.29521 36985 ft 456 kts 14°
2026-05-06 22:08 35.24987 -77.26075 36988 ft 456 kts 14°
2026-05-06 22:08 35.30665 -77.22629 36980 ft 455 kts 14°
2026-05-06 22:09 35.36339 -77.19180 36977 ft 456 kts 14°
2026-05-06 22:09 35.42019 -77.15721 36970 ft 455 kts 14°
2026-05-06 22:10 35.47696 -77.12259 36968 ft 456 kts 14°
2026-05-06 22:10 35.53374 -77.08792 36966 ft 456 kts 14°
2026-05-06 22:11 35.59052 -77.05318 36969 ft 456 kts 14°
2026-05-06 22:11 35.64730 -77.01839 36962 ft 456 kts 14°
2026-05-06 22:12 35.70362 -76.98382 36961 ft 456 kts 14°
2026-05-06 22:12 35.76033 -76.94896 36970 ft 455 kts 14°
2026-05-06 22:13 35.81701 -76.91407 36946 ft 455 kts 14°
2026-05-06 22:13 35.87370 -76.87913 36954 ft 455 kts 14°
2026-05-06 22:14 35.93080 -76.84701 36958 ft 447 kts
2026-05-06 22:14 35.98845 -76.81772 36959 ft 448 kts 10°
2026-05-06 22:15 36.04603 -76.78798 36960 ft 449 kts 10°
2026-05-06 22:15 36.10359 -76.75820 36956 ft 449 kts 11°
2026-05-06 22:16 36.16122 -76.72833 36954 ft 449 kts 11°
2026-05-06 22:16 36.21879 -76.69844 36954 ft 449 kts 11°
2026-05-06 22:17 36.27642 -76.66848 36952 ft 449 kts 11°
2026-05-06 22:17 36.33396 -76.63852 36946 ft 448 kts 11°
2026-05-06 22:18 36.39153 -76.60849 36942 ft 449 kts 11°
2026-05-06 22:18 36.44881 -76.57856 36945 ft 450 kts 11°
2026-05-06 22:19 36.50656 -76.54834 36937 ft 450 kts 11°
2026-05-06 22:19 36.56433 -76.51806 36941 ft 451 kts 11°
2026-05-06 22:20 36.62214 -76.48771 36937 ft 451 kts 11°
2026-05-06 22:20 36.68003 -76.45727 36931 ft 452 kts 11°
2026-05-06 22:21 36.73793 -76.42677 36925 ft 452 kts 11°
2026-05-06 22:21 36.79585 -76.39621 36928 ft 452 kts 11°
2026-05-06 22:22 36.85390 -76.36553 36932 ft 453 kts 11°
2026-05-06 22:22 36.91188 -76.33484 36920 ft 453 kts 11°
2026-05-06 22:23 36.96993 -76.30407 36919 ft 453 kts 11°
2026-05-06 22:23 37.02801 -76.27322 36918 ft 453 kts 11°
2026-05-06 22:24 37.08603 -76.24235 36900 ft 453 kts 11°
2026-05-06 22:24 37.14409 -76.21141 36911 ft 453 kts 12°
2026-05-06 22:25 37.20214 -76.18043 36906 ft 454 kts 12°
2026-05-06 22:25 37.26021 -76.14938 36902 ft 453 kts 12°
2026-05-06 22:26 37.31825 -76.11830 36906 ft 454 kts 12°
2026-05-06 22:26 37.37628 -76.08716 36905 ft 454 kts 12°
2026-05-06 22:27 37.43437 -76.05594 36906 ft 454 kts 12°
2026-05-06 22:27 37.49251 -76.02466 36909 ft 454 kts 12°
2026-05-06 22:28 37.55062 -75.99334 36909 ft 455 kts 12°
2026-05-06 22:28 37.60864 -75.96104 36899 ft 463 kts 20°
2026-05-06 22:29 37.66323 -75.91605 36883 ft 470 kts 23°
2026-05-06 22:29 37.71794 -75.87072 36899 ft 470 kts 23°
2026-05-06 22:30 37.77261 -75.82537 36897 ft 471 kts 23°
2026-05-06 22:30 37.82727 -75.77994 36895 ft 469 kts 24°
2026-05-06 22:31 37.88141 -75.73486 36897 ft 469 kts 24°
2026-05-06 22:31 37.93588 -75.68943 36913 ft 469 kts 24°
2026-05-06 22:32 37.99045 -75.64383 36916 ft 470 kts 24°
2026-05-06 22:32 38.04499 -75.59817 36911 ft 470 kts 24°
2026-05-06 22:33 38.09958 -75.55239 36913 ft 471 kts 24°
2026-05-06 22:33 38.15416 -75.50653 36902 ft 470 kts 24°
2026-05-06 22:34 38.20875 -75.46058 36900 ft 471 kts 24°
2026-05-06 22:34 38.26417 -75.41733 36883 ft 455 kts 11°
2026-05-06 22:35 38.29397 -75.40696 36911 ft 440 kts
2026-05-06 22:35 38.32414 -75.39924 36885 ft 443 kts
2026-05-06 22:35 38.38468 -75.38517 36897 ft 442 kts
2026-05-06 22:36 38.44529 -75.37203 36906 ft 442 kts
2026-05-06 22:36 38.50599 -75.35910 36884 ft 442 kts
2026-05-06 22:37 38.56676 -75.34617 36886 ft 443 kts
2026-05-06 22:37 38.62758 -75.33320 36881 ft 443 kts
2026-05-06 22:38 38.68838 -75.32022 36884 ft 444 kts
2026-05-06 22:38 38.74925 -75.30715 36879 ft 445 kts
2026-05-06 22:39 38.77923 -75.29536 36868 ft 460 kts 17°
2026-05-06 22:39 38.80773 -75.27585 36887 ft 466 kts 19°
2026-05-06 22:39 38.86440 -75.23635 36878 ft 467 kts 20°
2026-05-06 22:40 38.92131 -75.19595 36880 ft 468 kts 20°
2026-05-06 22:40 38.97820 -75.15545 36881 ft 467 kts 21°
2026-05-06 22:41 39.06355 -75.09456 36890 ft 468 kts 21°
2026-05-06 22:42 39.12038 -75.05392 36886 ft 467 kts 21°
2026-05-06 22:42 39.17720 -75.01320 36887 ft 467 kts 21°
2026-05-06 22:43 39.23397 -74.97245 36872 ft 467 kts 21°
2026-05-06 22:43 39.28919 -74.92727 36891 ft 473 kts 27°
2026-05-06 22:44 39.34308 -74.87840 36870 ft 473 kts 27°
2026-05-06 22:44 39.39690 -74.82937 36875 ft 473 kts 28°
2026-05-06 22:45 39.45063 -74.78033 36869 ft 473 kts 28°
2026-05-06 22:45 39.50440 -74.73115 36874 ft 473 kts 28°
2026-05-06 22:46 39.55803 -74.68200 36870 ft 472 kts 28°
2026-05-06 22:46 39.61164 -74.63279 36872 ft 472 kts 28°
2026-05-06 22:47 39.66513 -74.58359 36865 ft 471 kts 28°
2026-05-06 22:47 39.71868 -74.53423 36864 ft 472 kts 28°
2026-05-06 22:48 39.77209 -74.48491 36857 ft 471 kts 28°
2026-05-06 22:48 39.82556 -74.43544 36868 ft 472 kts 28°
2026-05-06 22:49 39.87896 -74.38594 36858 ft 471 kts 29°
2026-05-06 22:49 39.93228 -74.33641 36859 ft 471 kts 29°
2026-05-06 22:50 39.98559 -74.28679 36858 ft 471 kts 29°
2026-05-06 22:50 40.03851 -74.23746 36868 ft 471 kts 29°
2026-05-06 22:51 40.09174 -74.18771 36861 ft 470 kts 29°
2026-05-06 22:51 40.14493 -74.13791 36868 ft 470 kts 30°
2026-05-06 22:52 40.19807 -74.08807 36860 ft 470 kts 30°
2026-05-06 22:52 40.25123 -74.03811 36865 ft 470 kts 30°
2026-05-06 22:53 40.30427 -73.98816 36861 ft 470 kts 30°
2026-05-06 22:53 40.35843 -73.94140 36852 ft 459 kts 18°
2026-05-06 22:54 40.40657 -73.91194 36852 ft 460 kts 19°
2026-05-06 22:54 40.46438 -73.87595 36854 ft 459 kts 19°
2026-05-06 22:55 40.52208 -73.84021 36848 ft 459 kts 19°
2026-05-06 22:55 40.57983 -73.80437 36851 ft 459 kts 19°
2026-05-06 22:56 40.63796 -73.77063 36841 ft 450 kts
2026-05-06 22:56 40.69868 -73.75265 36854 ft 448 kts
2026-05-06 22:57 40.75956 -73.73463 36829 ft 448 kts
2026-05-06 22:57 40.82051 -73.71683 36827 ft 449 kts
2026-05-06 22:58 40.88149 -73.69903 36829 ft 449 kts
2026-05-06 22:58 40.94246 -73.68119 36830 ft 449 kts
2026-05-06 22:59 41.00343 -73.66333 36826 ft 449 kts
2026-05-06 22:59 41.06449 -73.64540 36829 ft 449 kts
2026-05-06 23:00 41.12545 -73.62746 36828 ft 449 kts
2026-05-06 23:00 41.18647 -73.60952 36824 ft 449 kts
2026-05-06 23:01 41.24749 -73.59144 36831 ft 450 kts
2026-05-06 23:01 41.30885 -73.57764 36836 ft 445 kts
2026-05-06 23:02 41.37055 -73.56901 36836 ft 446 kts
2026-05-06 23:02 41.43234 -73.56063 36836 ft 447 kts
2026-05-06 23:03 41.49431 -73.55223 36828 ft 447 kts
2026-05-06 23:03 41.55624 -73.54383 36824 ft 448 kts
2026-05-06 23:04 41.61830 -73.53539 36816 ft 448 kts
2026-05-06 23:04 41.67997 -73.52700 36808 ft 449 kts 360°
2026-05-06 23:05 41.74219 -73.51850 36797 ft 449 kts 360°
2026-05-06 23:05 41.80440 -73.51000 36801 ft 450 kts 359°
2026-05-06 23:06 41.86671 -73.50146 36799 ft 450 kts 359°
2026-05-06 23:06 41.92905 -73.49292 36796 ft 451 kts 359°
2026-05-06 23:07 41.99149 -73.48432 36791 ft 451 kts 359°
2026-05-06 23:07 42.05386 -73.47573 36794 ft 451 kts 359°
2026-05-06 23:08 42.11628 -73.46711 36797 ft 451 kts 359°
2026-05-06 23:08 42.17865 -73.45848 36795 ft 450 kts 359°
2026-05-06 23:09 42.24115 -73.44981 36789 ft 451 kts 359°
2026-05-06 23:09 42.30368 -73.44113 36785 ft 452 kts 359°
2026-05-06 23:10 42.36626 -73.43241 36790 ft 452 kts 358°
2026-05-06 23:10 42.42883 -73.42369 36798 ft 453 kts 358°
2026-05-06 23:11 42.49152 -73.41493 36789 ft 453 kts 358°
2026-05-06 23:11 42.55426 -73.40615 36793 ft 454 kts 358°
2026-05-06 23:12 42.61714 -73.39732 36801 ft 454 kts 358°
2026-05-06 23:12 42.68007 -73.38848 36811 ft 455 kts 358°
2026-05-06 23:13 42.74255 -73.37968 36807 ft 455 kts 358°
2026-05-06 23:13 42.80567 -73.37077 36817 ft 456 kts 358°
2026-05-06 23:14 42.86882 -73.36184 36812 ft 457 kts 358°
2026-05-06 23:14 42.93211 -73.35287 36825 ft 458 kts 358°
2026-05-06 23:15 42.99552 -73.34468 36807 ft 452 kts 351°
2026-05-06 23:15 43.05767 -73.34989 36816 ft 448 kts 348°
2026-05-06 23:16 43.11995 -73.35531 36829 ft 449 kts 348°
2026-05-06 23:16 43.18224 -73.36085 36831 ft 449 kts 347°
2026-05-06 23:17 43.24458 -73.36644 36847 ft 449 kts 347°
2026-05-06 23:17 43.30695 -73.37205 36844 ft 449 kts 347°
2026-05-06 23:18 43.36937 -73.37767 36850 ft 450 kts 347°
2026-05-06 23:18 43.43184 -73.38332 36848 ft 450 kts 347°
2026-05-06 23:19 43.49444 -73.38899 36849 ft 451 kts 347°
2026-05-06 23:19 43.55700 -73.39466 36851 ft 451 kts 347°
2026-05-06 23:20 43.61972 -73.40036 36844 ft 452 kts 347°
2026-05-06 23:20 43.68245 -73.40607 36858 ft 452 kts 347°
2026-05-06 23:21 43.74490 -73.41299 36446 ft 447 kts 346°
2026-05-06 23:21 43.77612 -73.41655 35451 ft 454 kts 345°
2026-05-06 23:21 43.80786 -73.41987 34624 ft 462 kts 346°
2026-05-06 23:21 43.83979 -73.42366 33931 ft 462 kts 346°
2026-05-06 23:22 43.87173 -73.42736 33103 ft 461 kts 345°
2026-05-06 23:22 43.90386 -73.43107 32258 ft 464 kts 347°
2026-05-06 23:22 43.93643 -73.43159 31442 ft 473 kts 355°
2026-05-06 23:22 43.96918 -73.43229 30586 ft 467 kts 345°
2026-05-06 23:23 44.00096 -73.44013 29942 ft 463 kts 346°
2026-05-06 23:23 44.03312 -73.44498 29317 ft 469 kts 349°
2026-05-06 23:23 44.06572 -73.44913 28651 ft 472 kts 349°
2026-05-06 23:23 44.09847 -73.45305 28027 ft 472 kts 349°
2026-05-06 23:24 44.13113 -73.45685 27401 ft 469 kts 349°
2026-05-06 23:24 44.16348 -73.46059 26779 ft 465 kts 349°
2026-05-06 23:24 44.19563 -73.46430 26152 ft 463 kts 349°
2026-05-06 23:24 44.22764 -73.46798 25526 ft 461 kts 349°
2026-05-06 23:25 44.25963 -73.47166 24905 ft 459 kts 349°
2026-05-06 23:25 44.29142 -73.47531 24283 ft 458 kts 349°
2026-05-06 23:25 44.32315 -73.47896 23673 ft 457 kts 349°
2026-05-06 23:25 44.35483 -73.48261 22991 ft 457 kts 349°
2026-05-06 23:26 44.38641 -73.48626 22326 ft 454 kts 349°
2026-05-06 23:26 44.41777 -73.48988 21723 ft 451 kts 349°
2026-05-06 23:26 44.44854 -73.49343 21136 ft 448 kts 349°
2026-05-06 23:26 44.47953 -73.49702 20539 ft 446 kts 349°
2026-05-06 23:27 44.51019 -73.50056 19952 ft 438 kts 349°
2026-05-06 23:27 44.54029 -73.50405 19396 ft 429 kts 349°
2026-05-06 23:27 44.56977 -73.50747 18837 ft 421 kts 349°
2026-05-06 23:27 44.59879 -73.51085 18297 ft 418 kts 349°
2026-05-06 23:28 44.62774 -73.51421 17742 ft 417 kts 349°
2026-05-06 23:28 44.65651 -73.51755 17262 ft 413 kts 349°
2026-05-06 23:28 44.68502 -73.52088 16770 ft 410 kts 349°
2026-05-06 23:28 44.71341 -73.52424 16197 ft 409 kts 349°
2026-05-06 23:29 44.74161 -73.52758 15722 ft 406 kts 349°
2026-05-06 23:29 44.76965 -73.53092 15245 ft 402 kts 349°
2026-05-06 23:29 44.79745 -73.53422 14764 ft 399 kts 349°
2026-05-06 23:29 44.82501 -73.53750 14283 ft 396 kts 349°
2026-05-06 23:30 44.85192 -73.54069 13816 ft 381 kts 349°
2026-05-06 23:30 44.87819 -73.54358 13276 ft 379 kts 349°
2026-05-06 23:30 44.90441 -73.54646 12782 ft 376 kts 349°
2026-05-06 23:30 44.93038 -73.54932 12345 ft 373 kts 349°
2026-05-06 23:31 44.95612 -73.55216 11943 ft 368 kts 349°
2026-05-06 23:31 44.98131 -73.55495 11773 ft 358 kts 349°
2026-05-06 23:31 45.00571 -73.55764 11595 ft 343 kts 349°
2026-05-06 23:31 45.02883 -73.56020 11444 ft 323 kts 349°
2026-05-06 23:32 45.05061 -73.56261 11296 ft 305 kts 348°
2026-05-06 23:32 45.07138 -73.56491 11159 ft 295 kts 348°
2026-05-06 23:32 45.08481 -73.56640 11051 ft 290 kts 348°
2026-05-06 23:32 45.09511 -73.56754 10918 ft 289 kts 348°
2026-05-06 23:33 45.11531 -73.56977 10609 ft 292 kts 348°
2026-05-06 23:33 45.13564 -73.57201 10335 ft 293 kts 348°
2026-05-06 23:33 45.15598 -73.57426 10045 ft 293 kts 349°
2026-05-06 23:33 45.17628 -73.57650 9739 ft 292 kts 349°
2026-05-06 23:34 45.19652 -73.57873 9403 ft 291 kts 349°
2026-05-06 23:34 45.21663 -73.58095 9079 ft 289 kts 349°
2026-05-06 23:34 45.23655 -73.58315 8774 ft 286 kts 350°
2026-05-06 23:34 45.25631 -73.58534 8466 ft 284 kts 350°
2026-05-06 23:35 45.27589 -73.58751 8179 ft 281 kts 351°
2026-05-06 23:35 45.29530 -73.58965 7882 ft 278 kts 351°
2026-05-06 23:35 45.31456 -73.59177 7564 ft 277 kts 352°
2026-05-06 23:35 45.33364 -73.59387 7279 ft 274 kts 352°
2026-05-06 23:36 45.35255 -73.59596 7003 ft 271 kts 352°
2026-05-06 23:36 45.37121 -73.59802 6731 ft 268 kts 353°
2026-05-06 23:36 45.38976 -73.59765 6418 ft 269 kts 11°
2026-05-06 23:36 45.40669 -73.58644 6117 ft 271 kts 31°
2026-05-06 23:37 45.42218 -73.57156 5831 ft 267 kts 30°
2026-05-06 23:37 45.43762 -73.55711 5550 ft 264 kts 31°
2026-05-06 23:37 45.45260 -73.54291 5270 ft 261 kts 31°
2026-05-06 23:37 45.46743 -73.52875 4971 ft 252 kts 31°
2026-05-06 23:38 45.48192 -73.51484 4705 ft 245 kts 32°
2026-05-06 23:38 45.49623 -73.50288 4455 ft 239 kts 20°
2026-05-06 23:38 45.51169 -73.49466 4202 ft 235 kts 16°
2026-05-06 23:38 45.52703 -73.48711 3994 ft 229 kts 16°
2026-05-06 23:39 45.54164 -73.47986 3974 ft 219 kts 16°
2026-05-06 23:39 45.55595 -73.47272 3940 ft 218 kts 16°
2026-05-06 23:39 45.57032 -73.46595 3920 ft 216 kts
2026-05-06 23:39 45.58460 -73.46749 3860 ft 200 kts 334°
2026-05-06 23:40 45.59541 -73.47833 3824 ft 182 kts 317°
2026-05-06 23:40 45.60466 -73.49030 3805 ft 178 kts 316°
2026-05-06 23:40 45.61334 -73.50285 3781 ft 177 kts 301°
2026-05-06 23:40 45.61599 -73.51395 3760 ft 176 kts 274°
2026-05-06 23:41 45.61417 -73.53088 3770 ft 174 kts 257°
2026-05-06 23:41 45.61081 -73.54755 3703 ft 171 kts 256°
2026-05-06 23:41 45.60747 -73.56385 3508 ft 171 kts 253°
2026-05-06 23:41 45.60207 -73.57871 3309 ft 173 kts 236°
2026-05-06 23:42 45.59384 -73.59130 3108 ft 174 kts 225°
2026-05-06 23:42 45.58476 -73.60277 2885 ft 174 kts 225°
2026-05-06 23:42 45.57585 -73.61431 2657 ft 172 kts 226°
2026-05-06 23:42 45.56710 -73.62574 2418 ft 169 kts 226°
2026-05-06 23:43 45.55852 -73.63710 2196 ft 168 kts 226°
2026-05-06 23:43 45.55000 -73.64834 1966 ft 166 kts 225°
2026-05-06 23:43 45.54158 -73.65941 1746 ft 161 kts 224°
2026-05-06 23:43 45.53367 -73.66973 1532 ft 146 kts 224°
2026-05-06 23:44 45.52636 -73.67940 1336 ft 143 kts 224°
2026-05-06 23:44 45.51910 -73.68897 1128 ft 142 kts 224°
2026-05-06 23:44 45.51184 -73.69850 934 ft 142 kts 223°
2026-05-06 23:44 45.50462 -73.70806 706 ft 142 kts 222°
2026-05-06 23:45 45.49736 -73.71756 534 ft 142 kts 222°
2026-05-06 23:45 45.49007 -73.72694 350 ft 140 kts 222°
2026-05-06 23:45 45.48303 -73.73649 134 ft 138 kts 219°
2026-05-06 23:45 45.47659 -73.74472 113 ft 112 kts 223°
2026-05-06 23:46 45.47250 -73.75015 116 ft 51 kts 223°
2026-05-06 23:46 45.46990 -73.75351 112 ft 49 kts 223°
2026-05-06 23:46 45.46785 -73.75551 110 ft 30 kts 204°
2026-05-06 23:46 45.46598 -73.75635 108 ft 27 kts 192°
2026-05-06 23:47 45.46433 -73.75689 106 ft 23 kts 192°
2026-05-06 23:47 45.46300 -73.75726 107 ft 17 kts 184°
2026-05-06 23:47 45.46183 -73.75730 105 ft 17 kts 191°
2026-05-06 23:47 45.46127 -73.75870 104 ft 20 kts 268°
2026-05-06 23:48 45.46056 -73.75969 107 ft 15 kts 182°
2026-05-06 23:48 45.45956 -73.75959 107 ft 14 kts 174°
2026-05-06 23:48 45.45865 -73.75946 107 ft 12 kts 171°
2026-05-06 23:48 45.45789 -73.75896 107 ft 12 kts 138°
2026-05-06 23:49 45.45730 -73.75781 107 ft 17 kts 108°
2026-05-06 23:49 45.45728 -73.75609 107 ft 17 kts 101°
2026-05-06 23:49 45.45689 -73.75483 107 ft 11 kts 117°
2026-05-06 23:49 45.45667 -73.75423 107 ft 0 kts 117°